Location: Oak Glen
(34.0495°N, 116.9470°E)
Time: 10:31:07
(UTC-07:00)

ISS - Pass Details

Date: 16 October 2017
Orbit: 401 x 408 km, 51.6° (Epoch: 23 October)

Event Time Altitude Azimuth Distance (km) Brightness Sun altitude
Rises 03:59:05 0° 306° (NW) 2,318 0.9 -17.7°
Reaches altitude 10° 04:01:13 10° 299° (WNW) 1,457 -0.1 -18.2°
Maximum altitude 04:04:20 42° 227° (SW) 591 -2.7 -18.8°
Enters shadow 04:05:41 26° 174° (S) 829 -2.4 -19.1°
